Wind_Speed
36 33 31 30 29 29 28 27 25 22 20 18 16 15 13 13 13 13 14 12 11 11 11 11 11 10 10 11 12 13 14 15 16 17 18 19 21 23 25 26 27 28 29 31
40 38 37 35 33 32 31 30 27 25 22 19 17 15 14 13 13 13 14 13 12 13 13 12 12 12 12 12 12 13 15 17 17 17 18 19 21 23 24 25 25 27 28 30
43 41 41 40 35 34 33 31 30 27 23 21 20 18 16 15 15 15 14 14 13 14 14 13 13 13 13 14 14 15 15 16 17 19 20 20 21 22 22 23 25 28 30 30
42 42 44 39 36 35 34 32 30 28 25 23 21 19 18 17 16 16 16 16 15 15 15 15 15 15 15 16 16 16 17 19 20 20 21 21 22 24 25 26 28 29 30 31
41 42 42 39 37 36 35 34 31 28 26 25 22 21 20 19 18 18 18 17 16 16 16 16 16 16 17 16 17 18 18 19 20 21 21 22 23 24 26 28 29 31 32 33
39 40 40 37 35 36 36 35 31 29 27 26 24 23 21 21 20 20 19 18 17 17 17 18 18 17 17 18 18 19 20 20 21 22 23 24 25 26 28 29 30 31 33 33
37 38 37 35 34 34 35 32 30 29 28 26 25 24 23 22 20 20 20 20 19 18 18 18 19 19 19 20 20 20 21 21 22 23 24 25 25 26 27 28 30 30 31 32
32 34 33 31 30 31 30 29 29 29 28 26 26 25 24 22 22 21 21 20 19 20 20 19 20 20 21 21 21 21 22 22 23 24 25 26 27 27 28 29 30 30 32 34
28 28 27 27 28 27 26 26 27 28 27 26 25 24 24 24 24 22 21 21 21 21 21 21 21 22 22 23 22 23 24 24 25 26 27 28 29 30 30 31 32 33 34 35
23 22 22 23 24 25 25 25 27 28 28 27 26 24 23 23 22 21 20 20 21 21 21 22 22 23 23 23 24 24 25 26 27 28 29 30 30 31 32 33 34 35 36 37
20 19 19 20 21 22 23 23 24 26 28 27 25 23 23 22 21 21 21 20 21 21 22 22 23 23 23 24 25 26 27 28 29 30 31 31 32 33 33 34 35 37 37 38
18 17 17 18 20 21 22 21 22 23 24 24 23 23 21 19 20 21 20 20 20 21 22 22 23 23 24 25 27 28 29 30 31 31 32 33 34 35 35 36 37 38 39 40
14 14 14 16 17 19 20 21 22 22 22 21 21 21 20 19 20 20 19 19 19 20 21 22 23 24 25 27 28 29 30 31 32 33 34 35 36 37 38 39 40 41 42 42
10 11 12 14 14 14 15 17 17 18 18 18 18 17 17 17 18 17 17 18 19 20 21 22 24 25 26 28 29 30 32 33 34 35 36 37 39 40 41 42 42 43 44 46
9 10 11 12 11 11 12 14 15 15 14 14 15 15 15 15 15 16 17 18 19 20 21 23 25 26 27 29 31 32 34 35 36 38 39 41 42 43 44 45 46 47 48 49
8 9 10 10 10 11 12 12 12 12 11 11 11 12 13 13 14 15 17 18 20 22 23 25 27 28 29 31 33 34 36 37 39 40 42 43 44 45 46 47 48 49 50 50
7 8 9 9 9 9 10 10 10 9 9 9 10 11 12 13 15 17 18 20 22 24 25 27 29 30 32 34 35 37 38 40 41 42 43 44 45 46 47 48 49 49 49 49
7 7 7 6 6 7 8 8 8 8 8 9 11 12 14 15 17 19 21 22 24 26 27 29 31 33 34 36 37 39 40 42 43 44 44 45 46 47 47 47 47 47 47 47
8 7 7 7 7 7 7 8 8 9 10 12 13 15 16 18 20 21 23 25 26 28 29 31 33 35 36 38 39 40 41 42 43 43 44 44 45 45 45 44 44 44 44 43
9 9 9 8 8 8 9 10 11 12 13 14 16 17 19 21 22 24 26 28 29 31 32 34 35 37 37 38 39 40 41 41 42 42 43 43 42 42 41 41 40 40 40 39
9 10 10 10 10 10 11 12 13 15 16 17 19 21 22 24 25 27 29 30 32 33 35 36 37 37 38 39 39 40 40 40 41 41 40 39 38 38 37 37 36 36 36 35
9 9 10 10 11 12 13 14 16 18 19 21 22 24 25 26 28 30 31 32 34 35 36 36 37 37 38 39 39 39 39 38 38 37 37 36 36 35 35 34 34 34 33 32
9 10 11 12 13 14 15 16 18 20 21 23 24 25 27 29 30 31 33 34 35 36 36 37 37 37 38 38 37 37 36 36 36 35 35 34 33 33 32 32 32 32 31 30
11 12 13 14 15 17 18 20 21 23 24 26 27 28 29 31 32 33 34 35 35 36 36 36 36 36 36 36 35 34 34 34 34 33 32 32 32 31 31 31 31 30 29 28
13 14 15 17 18 20 21 22 24 25 27 28 29 30 31 31 33 33 34 34 34 34 34 34 34 34 34 33 32 32 32 32 32 31 31 31 31 30 29 29 28 28 27 25
16 17 19 20 21 22 24 25 26 27 28 29 30 31 32 33 33 33 33 33 33 33 32 32 31 31 31 30 30 30 31 31 30 29 29 29 28 28 27 27 26 26 25 24
19 20 21 22 23 24 25 26 27 28 29 30 31 32 32 32 32 32 32 31 30 30 29 28 28 28 28 28 27 27 27 27 27 26 26 26 26 26 25 25 25 24 24 24
Wind_Direction
264 263 260 259 257 259 262 267 270 275 281 284 286 289 282 277 271 272 275 275 272 267 268 266 265 267 271 272 267 257 254 251 251 252 254 256 256 257 258 261 262 263 264 264
263 264 263 261 259 260 263 266 269 273 278 277 279 282 277 271 266 266 268 268 268 264 264 265 264 267 273 275 271 265 260 260 257 256 259 260 261 261 262 263 265 264 265 269
261 262 262 261 261 262 264 264 266 268 272 272 273 274 271 267 264 260 262 264 264 262 263 264 262 265 270 272 272 269 264 266 267 263 265 265 269 268 268 269 269 268 269 271
261 261 260 263 263 262 262 261 263 265 265 267 268 267 267 267 264 258 259 261 260 256 257 259 260 263 268 271 274 272 269 269 268 269 270 270 270 269 270 271 271 271 271 272
259 261 262 262 261 260 259 258 259 261 261 262 262 261 264 262 262 261 257 258 257 254 255 256 260 264 267 271 271 271 272 275 274 274 274 273 274 273 271 272 273 272 271 271
258 259 260 261 260 259 257 255 255 257 259 260 258 259 260 257 260 258 254 251 252 254 255 258 262 266 269 270 271 272 273 274 277 279 279 279 278 277 275 274 273 273 273 274
257 258 259 258 257 256 254 255 251 251 254 256 253 255 255 253 255 255 253 250 251 254 257 261 263 267 270 272 273 275 276 277 281 282 282 283 284 283 281 279 278 278 278 278
255 255 255 255 254 253 254 251 246 244 246 248 251 253 251 250 250 253 252 252 253 257 260 263 265 268 272 274 275 279 281 281 283 284 285 285 285 285 284 282 282 281 279 280
252 254 253 250 248 247 247 244 240 239 240 246 249 250 250 248 250 250 251 251 256 260 264 266 267 270 274 276 279 282 283 284 285 287 288 287 287 286 285 283 282 281 281 281
249 247 245 244 241 241 239 239 238 237 239 242 244 247 247 246 243 245 247 251 257 261 266 269 272 273 276 279 283 285 286 286 287 288 289 289 288 287 286 286 285 284 283 282
242 242 241 240 237 237 236 234 235 235 236 238 240 242 245 243 242 246 249 252 257 261 267 271 274 276 279 282 285 287 288 289 289 290 290 290 290 289 288 287 286 285 284 283
235 236 233 231 233 232 230 232 232 231 231 235 238 240 239 241 243 246 249 252 257 264 269 272 276 280 283 285 287 289 290 291 292 291 291 291 290 290 289 288 287 287 286 284
226 224 217 216 223 226 227 227 225 223 223 225 230 233 236 239 244 248 251 257 263 268 273 276 280 283 285 287 289 290 291 292 292 292 292 291 291 290 290 289 289 288 287 286
210 210 210 212 217 217 216 216 216 216 215 219 225 229 235 241 245 249 255 261 267 272 276 279 282 285 287 288 290 291 292 292 293 293 293 292 292 292 291 291 290 290 289 288
191 191 188 189 192 195 197 201 206 211 217 224 229 234 239 244 249 255 260 266 271 275 279 282 285 286 288 289 291 292 293 293 293 293 293 293 293 292 292 291 291 291 290 290
180 181 182 182 182 187 192 199 207 214 218 223 232 241 246 252 257 261 266 272 276 279 282 285 287 289 290 291 293 293 293 294 294 294 294 294 293 293 293 292 292 292 292 292
178 180 180 178 179 184 189 197 205 212 222 231 240 247 255 262 268 272 276 279 281 284 286 288 290 291 292 293 294 294 294 294 294 295 295 295 294 294 294 294 294 294 294 294
184 187 186 185 190 192 199 208 218 231 242 250 257 263 268 272 275 278 281 283 285 286 288 289 291 292 293 294 294 294 295 295 295 296 296 296 296 296 296 297 297 297 297 297
205 212 214 217 218 223 227 233 243 252 259 265 269 273 276 278 280 283 285 286 287 288 289 291 292 294 294 295 295 296 296 297 297 298 298 298 298 298 299 300 300 300 300 300
218 221 223 226 234 242 249 256 260 264 268 272 275 278 280 282 283 285 287 288 289 290 291 293 294 295 296 297 297 298 298 299 299 299 299 300 300 300 301 302 303 303 304 303
216 220 224 233 243 251 258 264 268 270 272 275 278 281 283 284 286 288 289 290 292 293 294 296 297 297 298 299 299 300 300 301 301 301 302 302 303 304 305 306 306 307 307 306
223 231 240 250 256 261 265 269 272 274 276 279 281 283 285 287 289 290 291 292 293 294 295 296 297 298 299 300 301 300 301 301 302 302 303 304 306 307 308 308 308 308 309 309
240 247 255 262 267 270 273 275 278 281 283 284 286 287 289 290 291 292 293 294 295 295 296 297 298 299 300 301 300 300 301 302 303 304 305 305 306 308 309 309 309 310 310 310
253 259 265 271 275 277 278 280 282 284 286 287 288 290 291 291 292 293 294 295 295 296 297 298 299 299 299 299 300 301 301 302 304 305 306 307 307 308 309 309 309 310 311 310
260 266 272 276 278 280 281 283 284 286 288 289 291 292 292 293 293 294 294 295 296 297 298 298 299 299 300 301 301 302 303 304 305 306 306 307 308 308 308 309 310 311 311 311
269 273 277 279 281 282 284 286 287 288 290 291 293 294 294 294 295 295 295 296 297 298 298 298 300 301 302 303 304 304 305 306 307 308 309 309 309 310 310 311 312 313 312 312
274 277 279 280 282 284 286 287 289 290 291 292 293 294 294 295 296 296 297 298 299 299 299 300 302 303 304 306 306 307 309 310 311 311 312 312 313 313 313 313 314 314 314 314
Height
5802 5805 5807 5809 5811 5813 5814 5816 5817 5819 5820 5821 5820 5820 5820 5820 5819 5819 5819 5818 5817 5817 5817 5817 5817 5817 5817 5817 5817 5817 5818 5818 5819 5821 5822 5823 5823 5824 5825 5826 5826 5827 5827 5827
5794 5796 5798 5800 5803 5806 5807 5809 5811 5812 5814 5815 5815 5815 5815 5816 5816 5816 5815 5815 5814 5814 5814 5814 5814 5815 5815 5814 5814 5814 5814 5814 5815 5817 5818 5818 5818 5818 5819 5819 5819 5820 5820 5820
5784 5787 5788 5789 5795 5798 5800 5802 5804 5806 5809 5809 5810 5811 5811 5811 5811 5811 5812 5811 5811 5811 5811 5811 5811 5811 5811 5811 5811 5810 5810 5810 5812 5812 5812 5813 5813 5813 5813 5813 5813 5813 5812 5812
5774 5777 5777 5784 5787 5789 5791 5793 5796 5799 5801 5803 5804 5805 5806 5807 5807 5807 5808 5807 5807 5807 5807 5807 5807 5807 5807 5807 5807 5807 5807 5807 5807 5807 5807 5807 5807 5807 5807 5806 5806 5805 5804 5803
5764 5765 5767 5773 5776 5779 5781 5784 5788 5791 5793 5795 5797 5798 5800 5801 5802 5802 5802 5803 5802 5803 5803 5803 5803 5803 5803 5803 5802 5802 5802 5802 5801 5801 5801 5801 5801 5800 5799 5799 5798 5796 5795 5794
5754 5755 5757 5764 5767 5768 5772 5775 5780 5783 5785 5788 5790 5792 5794 5794 5795 5795 5796 5797 5798 5798 5799 5799 5799 5798 5798 5798 5797 5797 5797 5796 5796 5796 5795 5794 5793 5792 5791 5790 5789 5788 5787 5785
5744 5745 5748 5754 5756 5759 5763 5768 5772 5775 5778 5780 5782 5785 5787 5787 5788 5789 5790 5791 5792 5793 5793 5794 5794 5793 5793 5792 5792 5792 5791 5791 5790 5789 5788 5787 5786 5785 5783 5782 5780 5779 5778 5776
5736 5737 5743 5745 5747 5751 5755 5759 5762 5766 5769 5772 5774 5776 5778 5780 5782 5783 5784 5785 5786 5787 5787 5787 5788 5788 5787 5787 5786 5786 5785 5784 5783 5782 5781 5780 5778 5777 5775 5774 5772 5770 5768 5767
5729 5733 5734 5736 5739 5743 5746 5750 5754 5757 5761 5764 5766 5768 5770 5772 5774 5776 5777 5778 5780 5781 5781 5781 5781 5781 5781 5781 5780 5779 5778 5777 5775 5774 5773 5771 5770 5768 5766 5764 5763 5761 5759 5757
5722 5724 5726 5729 5732 5735 5739 5742 5746 5749 5754 5757 5759 5761 5763 5765 5766 5768 5770 5771 5773 5774 5774 5774 5774 5774 5774 5773 5772 5772 5770 5769 5767 5766 5764 5762 5760 5758 5756 5754 5752 5750 5748 5746
5716 5719 5720 5723 5726 5729 5732 5736 5739 5742 5746 5749 5752 5755 5757 5759 5760 5762 5763 5765 5766 5767 5767 5767 5767 5767 5766 5765 5765 5764 5762 5761 5759 5757 5755 5753 5751 5749 5746 5744 5741 5739 5736 5734
5712 5715 5716 5719 5721 5724 5727 5730 5733 5736 5739 5742 5746 5749 5751 5752 5754 5756 5757 5758 5759 5760 5760 5760 5760 5760 5759 5758 5757 5756 5754 5752 5750 5748 5746 5743 5741 5739 5736 5733 5730 5727 5724 5722
5709 5710 5713 5715 5717 5719 5722 5725 5727 5730 5733 5737 5740 5743 5745 5747 5749 5751 5752 5752 5753 5753 5754 5754 5753 5753 5752 5750 5749 5747 5745 5743 5741 5739 5736 5734 5731 5728 5725 5722 5718 5715 5712 5708
5706 5708 5710 5712 5714 5716 5718 5721 5724 5727 5730 5733 5735 5738 5740 5742 5744 5745 5746 5747 5747 5747 5747 5747 5746 5745 5744 5743 5741 5739 5736 5734 5732 5729 5726 5723 5720 5716 5713 5709 5706 5702 5698 5694
5705 5707 5709 5710 5712 5714 5716 5719 5722 5725 5727 5730 5732 5734 5736 5738 5739 5740 5741 5741 5741 5741 5741 5740 5739 5738 5736 5734 5732 5730 5727 5724 5721 5718 5715 5712 5708 5704 5700 5696 5692 5688 5684 5679
5704 5706 5708 5710 5712 5714 5716 5719 5721 5723 5725 5727 5729 5731 5732 5734 5734 5735 5735 5735 5735 5735 5734 5733 5731 5729 5727 5725 5723 5720 5717 5714 5711 5707 5703 5699 5695 5691 5687 5682 5678 5673 5668 5664
5704 5706 5708 5710 5712 5713 5716 5718 5720 5721 5723 5724 5726 5727 5728 5729 5730 5730 5730 5729 5728 5727 5726 5725 5723 5720 5718 5716 5713 5710 5706 5703 5699 5695 5691 5687 5682 5678 5673 5668 5663 5658 5653 5649
5704 5706 5708 5710 5711 5713 5715 5716 5718 5719 5721 5722 5723 5724 5724 5724 5724 5724 5723 5723 5721 5720 5718 5716 5714 5712 5709 5706 5702 5699 5695 5691 5687 5683 5678 5674 5669 5664 5659 5654 5649 5644 5639 5634
5703 5705 5707 5708 5710 5712 5713 5714 5716 5717 5718 5719 5719 5719 5719 5719 5718 5718 5717 5715 5714 5712 5710 5708 5705 5702 5699 5695 5692 5688 5684 5679 5675 5670 5665 5661 5656 5651 5646 5641 5636 5631 5626 5621
5702 5703 5705 5707 5708 5709 5711 5712 5712 5713 5714 5714 5714 5714 5713 5713 5712 5711 5710 5708 5706 5704 5701 5698 5695 5692 5688 5684 5680 5676 5672 5667 5663 5658 5653 5649 5644 5639 5634 5629 5624 5619 5614 5610
5700 5701 5703 5704 5705 5706 5707 5708 5708 5708 5709 5709 5708 5708 5707 5706 5705 5703 5701 5699 5697 5694 5691 5688 5684 5681 5677 5673 5669 5665 5660 5656 5651 5647 5642 5637 5633 5628 5623 5619 5614 5609 5605 5600
5697 5699 5700 5701 5702 5702 5703 5703 5703 5703 5703 5703 5702 5701 5700 5698 5696 5694 5692 5690 5687 5684 5681 5677 5674 5670 5666 5662 5658 5654 5650 5645 5641 5636 5632 5628 5623 5619 5614 5609 5605 5601 5596 5592
5694 5695 5696 5697 5697 5698 5698 5698 5697 5697 5697 5696 5695 5693 5691 5689 5687 5685 5682 5679 5676 5673 5670 5667 5663 5659 5656 5652 5647 5643 5639 5635 5631 5627 5623 5618 5614 5610 5606 5601 5597 5593 5588 5584
5691 5691 5692 5692 5692 5692 5692 5692 5691 5690 5689 5688 5686 5684 5682 5680 5678 5675 5672 5669 5666 5663 5659 5656 5652 5649 5645 5642 5637 5634 5630 5626 5622 5618 5614 5610 5606 5602 5598 5593 5589 5585 5581 5577
5687 5687 5687 5687 5687 5686 5686 5685 5684 5683 5681 5679 5678 5675 5673 5671 5668 5665 5662 5659 5656 5653 5649 5646 5643 5639 5635 5632 5628 5624 5621 5617 5613 5610 5606 5602 5598 5594 5590 5586 5582 5578 5575 5571
5682 5682 5682 5681 5681 5680 5679 5678 5676 5674 5673 5670 5668 5666 5663 5661 5658 5655 5652 5649 5646 5643 5640 5636 5633 5630 5626 5623 5619 5616 5613 5609 5605 5602 5598 5594 5591 5587 5583 5580 5576 5572 5569 5565
5676 5676 5675 5675 5674 5672 5671 5669 5668 5666 5664 5661 5659 5656 5653 5651 5648 5645 5642 5639 5636 5633 5630 5628 5625 5622 5618 5615 5612 5609 5605 5602 5599 5595 5591 5588 5584 5581 5577 5573 5570 5566 5563 5560